sat.trackr.live / text

‹ back to catalog

STARLINK-37199

NORAD 68327 · 2026-059G

PAYLOAD ACTIVE UNKNOWN

§ Identity

Operator
Country
US
Launch date
2026-03-22
Launch site
AFETR
Launch vehicle
Mass (kg)
RCS (m²)

Purposes: comms

External: N2YO · Heavens-Above · Gunter

§ Orbital elements

Epoch: 2026-09-19T23:55:13.240128Z

Period
93.85 min
Inclination
53.1601°
Eccentricity
0.0001377
Mean motion
15.34426430 rev/d
Perigee alt
461.7 km
Apogee alt
463.6 km
Semi-major
6,840.8 km
B*
4.6575e-4
RAAN
163.7065°
Arg perigee
90.2852°
Mean anomaly
269.8308°
Rev number
2,795

§ Raw data

STARLINK-371991 68327U 26059G   26262.99668102  .00015405  00000+0  46575-3 0  99912 68327  53.1601 163.7065 0001377  90.2852 269.8308 15.34426430 27957

JSON: /api/v1/satellites/68327 · /tle

For live sub-satellite position, see the globe view (requires WebGL).

§ Visibility from observer

Set your observer location to see the next 7 days of passes ≥ 10°. The values pass through the URL so the page stays shareable.

No JS? Fill the form by hand. The geolocation button needs JavaScript.